Weather Roundup
Issued by NWS

Home | Current Version | Previous Version | Graphics & Text | Print | Product List | Glossary Off
Versions: 1 2 3 4 5 6 7 8 9 10 11 12 13 14 15 16 17 18 19 20 21 22 23 24 25 26 27 28 29 30 31 32 33 34 35 36 37 38 39 40 41 42 43 44 45 46 47 48 49 50

000
NZUS93 KARX 211210
HRRWXR

CURRENT HOURLY OBSERVATIONS ACROSS
MUCH OF THE UPPER MISSISSIPPI VALLEY
NATIONAL WEATHER SERVICE LA CROSSE WI
700 AM CDT THU AUG 21 2014


...SOUTHEAST MINNESOTA...


CITY           SKY/WX    TMP DP  RH WIND       PRES   REMARKS
ROCHESTER      TSTM      70  68  93 CALM      29.90R FOG
ROCHESTER/MAYO CLOUDY    69  68  95 S7        29.89R
WINONA         CLOUDY    70  68  94 CALM      29.88R
AUSTIN         TSTM      72  70  94 N12       29.86R
ALBERT LEA     TSTM      70  70 100 CALM      29.86R
DODGE CENTER   TSTM      66  64  94 S6        29.91R
PRESTON          N/A     69  68  98 SE10      29.86F THUNDER
OWATONNA       TSTM      72  68  88 CALM      29.84F
FARIBAULT      CLOUDY    72  66  83 E5        29.83F
$$

...ELSEWHERE IN MINNESOTA...


CITY           SKY/WX    TMP DP  RH WIND       PRES   REMARKS
MINNEAPOLIS    CLOUDY    70  69  97 N8        29.86R
INTNL FALLS    CLOUDY    59  58  96 E9        29.91S
DULUTH         CLOUDY    60  58  92 E12       29.91S FOG
RED WING       TSTM      72  68  88 SW7       29.86R
REDWOOD FALLS  PTCLDY    71  69  93 E8        29.74F
MANKATO        CLOUDY    70  64  83 SE10      29.80F
WORTHINGTON    PTCLDY    72  12  10 S7        29.78R
FAIRMONT       CLOUDY    70  64  83 MISG      29.79F
$$

...SOUTHWEST WISCONSIN...


CITY           SKY/WX    TMP DP  RH WIND       PRES   REMARKS
LA CROSSE      CLOUDY    72  66  81 SE3       29.89R
PRAIRIE DU CHI CLOUDY    71  66  86 CALM      29.90R
BOSCOBEL       CLOUDY    70  67  90 CALM      29.90S
LONE ROCK      CLOUDY    73  68  84 SE5       29.90R
PLATTEVILLE    CLOUDY    69  67  90 SE7       29.94R
FORT MC COY    CLOUDY    69  66  90 E3        29.90S
CAMP DOUGLAS   DRIZZLE   66  66 100 SE5       29.91S FOG
VIROQUA        PTSUNNY   67  67 100 SE5       29.91S
WIS DELLS      CLOUDY    65  63  92 CALM      29.93R FOG
$$

...ELSEWHERE IN WISCONSIN...


CITY           SKY/WX    TMP DP  RH WIND       PRES   REMARKS
MILWAUKEE      MOCLDY    68  64  87 E3        29.94S
MADISON        CLOUDY    70  66  87 S8        29.93R
GREEN BAY      MOCLDY    63  62  97 CALM      29.95R FOG
EAU CLAIRE     LGT RAIN  66  65  96 E6        29.88R
BLACK RVR FLS  CLOUDY    67  67  99 CALM      29.88R
MEDFORD        CLOUDY    62  61  97 SE5       29.94R FOG
WAUSAU         MOCLDY    61  60  97 E7        29.94R FOG
WIS RAPIDS     CLOUDY    64  62  93 SE6       29.93F
MARSHFIELD     CLOUDY    65  63  93 SE7       29.93R FOG
RICE LAKE      RAIN      64  61  90 E5        29.91R
$$

...NORTHEAST IOWA...


CITY           SKY/WX    TMP DP  RH WIND       PRES   REMARKS
WATERLOO       CLOUDY    71  70  96 SE7       29.82S FOG
DUBUQUE        LGT RAIN  70  68  93 SE8       29.93R FOG
DECORAH        LGT RAIN  70  70 100 SE7       29.88S
MASON CITY     RAIN      72  71  97 W5        29.85R FOG
CHARLES CITY   CLOUDY    72  70  94 SE8       29.83F
OELWEIN        CLOUDY    72  70  94 SE7       29.87S
$$

...ELSEWHERE IN IOWA...


CITY           SKY/WX    TMP DP  RH WIND       PRES   REMARKS
DES MOINES     CLOUDY    77  69  76 SW9       29.82R
IOWA CITY      MOCLDY    72  71  97 S5        29.88R
FORT DODGE     CLOUDY    73  70  88 SW9       29.80R
MARSHALLTOWN   CLOUDY    74  70  87 S9        29.82R
CEDAR RAPIDS   CLOUDY    72  72 100 SE5       29.86R
$$

...NORTHERN ILLINOIS...


CITY           SKY/WX    TMP DP  RH WIND       PRES   REMARKS
CHICAGO-OHARE  TSTM      72  67  84 CALM      29.94R
DUPAGE         TSTM      70  68  93 NW8G26    29.98R VSB 1
CHICAGO-MIDWAY TSTM      72  70  93 SW5       29.93S
MOLINE         MOCLDY    73  69  87 CALM      29.90R
ROCKFORD       TSTM      69  67  93 CALM      30.02R FOG
STERLING       CLOUDY    72  70  94 E8        29.95R
PEORIA         PTCLDY    73  69  87 SW5       29.93R
$$

NOTE: "FAIR" INDICATES FEW OR NO CLOUDS BELOW 12,000 FEET WITH NO
SIGNIFICANT WEATHER AND/OR OBSTRUCTIONS TO VISIBILITY. WIND
SPEEDS ARE IN MILES-PER-HOUR.



USA.gov is the U.S. government's official web portal to all federal, state and local government web resources and services.